Погода в Шихобалове

Россия / Владимирская область     56°25′48″N   40°05′24″E
темп.,
°C
ветер,
м/с
пор.,
м/с
влажн.,
%
обл.,
%
осадки,
мм/ч
давл.,
гПа
погр.,
м
14 июня, пн
пн1400:00+15юз33905 0.0 101029
03:00+14ююз34925 0.0 101145
06:00+16юз35922 0.0 1012135
09:00+20юз34774 0.2 1014428
12:00+23ююз23614 2.7 10141034
15:00+24ююв12598 2.7 10141152
18:00+23ююз1273100 0.1 1014360
21:00+20зюз117474 0.1 101411
15 июня, вт
вт1500:00+19ююз1173100 0.0 101411
03:00+18ю117598 0.0 101411
06:00+18юз1184100 0.0 101412
09:00+20с018151 0.2 1014141
12:00+24ююз23600 0.4 10121143
15:00+25юз23612 0.4 10111414
18:00+23ююз237627 0.8 1010146
21:00+19з228199 1.4 101011
16 июня, ср
ср1600:00+17зюз118753 1.0 100911
03:00+16зюз2290100 1.7 100912
06:00+17зсз359498 0.4 1009162
09:00+18ссз7108448 1.4 1010455
12:00+19ссз797484 0.2 1012865
15:00+20ссз69680 0.3 10131363
18:00+18ссз512645 0.0 1014698
21:00+13ссз3371100 0.0 101736
17 июня, чт
чт1700:00+12сз48710 0.0 1018126
03:00+10ссз34664 0.0 102050
06:00+12сз26775 0.0 1022164
09:00+17ссз46650 0.0 1023562
12:00+20ссз57570 0.0 10231764
15:00+21ссз475528 0.0 10232056
18:00+21с35680 0.0 1024478
21:00+16ссз11785 0.0 102411
18 июня, пт
пт1800:00+14з12815 0.0 102511
03:00+13з22820 0.0 102613
06:00+15зсз24810 0.0 1027106
09:00+20з23690 0.0 1027390
12:00+23з33590 0.0 10261135
15:00+24з34565 0.0 10251373
18:00+24зюз246812 0.0 1025336
21:00+19зюз33777 0.0 102537